Flag for Romania Weather past 2 weeks in Bucharest, Romania

Now
75 °F

Passing clouds.


Feels Like: 75 °F
Forecast: 66 / 89 °F
Wind: 7 mph from Northeast

Location: Bucharest / Imh

Current Time: Jul 29, 2014 at 4:46:58 PM

Latest Report: Jul 29, 2014 at 4:00 PM


Visibility: N/A

Pressure: 29.89 "Hg

Humidity: 83%

Dew point: 70 °F

Location of BucharestLocation

Historic Weather in Bucharest — Graph

°F

Bucharest temperature yesterday

Maximum temperature yesterday: 90 °F (at 3:00 PM)
Minimum temperature yesterday: 66 °F (at 5:00 AM)
Average temperature yesterday: 79 °F

Past Weeks' High & Low Weather Summary

 TemperatureHumidityPressure
High91 °F (Jul 22, 4:00 PM)100% (Jul 17, 4:30 AM)30.01 "Hg (Jul 17, 4:30 AM)
Low64 °F (Jul 15, 4:00 AM)22% (Jul 16, 2:30 PM)29.71 "Hg (Jul 23, 4:00 PM)
Average76 °F68%29.89 "Hg
* Reported Jul 14 4:00 PM — Jul 29 4:00 PM, Bucharest, Weather by CustomWeather, © 2014

Note: Actual official high and low records may vary slightly from our data, if they occured in-between our weather recording intervals... More about our weather records

Advertising

Bucharest weather history for previous 24 hours

 ConditionsComfort  
Time TempWeatherWind HumidityBarometerVisibility
4:00 PM
Jul 29
75 °FPassing clouds.7 mph83%29.89 "HgN/A
3:30 PM73 °FSprinkles. Scattered clouds.9 mph83%29.89 "HgN/A
3:00 PM77 °FThunderstorms. Partly sunny.12 mph69%29.89 "HgN/A
2:30 PM79 °FThunderstorms. Partly sunny.2 mph74%29.89 "HgN/A
2:00 PM79 °FThunderstorms. Scattered clouds.2 mph70%29.92 "HgN/A
1:30 PM79 °FScattered clouds.7 mph70%29.92 "HgN/A
1:00 PM79 °FPartly sunny.12 mph70%29.89 "HgN/A
12:30 PM79 °FPartly sunny.14 mph74%29.89 "HgN/A
12:00 PM79 °FPartly sunny.12 mph74%29.89 "HgN/A
11:30 AM75 °FPartly sunny.12 mph83%29.89 "HgN/A
11:00 AM75 °FPartly sunny.12 mph83%29.89 "HgN/A
10:30 AM75 °FPartly sunny.12 mph83%29.89 "HgN/A
10:00 AM75 °FPartly sunny.12 mph83%29.89 "HgN/A
9:30 AM75 °FPartly sunny.12 mph78%29.89 "HgN/A
9:00 AM73 °FPartly sunny.12 mph83%29.89 "HgN/A
8:30 AM72 °FScattered clouds.9 mph83%29.89 "HgN/A
8:00 AM70 °FPartly sunny.7 mph88%29.89 "HgN/A
7:30 AM70 °FPartly sunny.9 mph83%29.89 "HgN/A
7:00 AM70 °FPartly sunny.7 mph88%29.86 "HgN/A
6:30 AM70 °FPassing clouds.7 mph88%29.86 "HgN/A
5:30 AM70 °FPassing clouds.5 mph94%29.89 "HgN/A
5:00 AM70 °FPassing clouds.9 mph94%29.86 "HgN/A
4:30 AM72 °FPassing clouds.5 mph88%29.89 "HgN/A
4:00 AM70 °FPassing clouds.7 mph94%29.89 "HgN/A
3:30 AM72 °FLight rain. Clear.7 mph88%29.89 "HgN/A
3:00 AM72 °FClear.7 mph88%29.89 "Hg10 mi
2:30 AM72 °FClear.7 mph88%29.89 "Hg10 mi
2:00 AM72 °FPassing clouds.7 mph88%29.92 "HgN/A
1:30 AM72 °FPassing clouds.9 mph88%29.92 "HgN/A
1:00 AM72 °FClear.7 mph88%29.92 "Hg10 mi
12:30 AM73 °FPassing clouds.2 mph89%29.92 "HgN/A
12:00 AM75 °FPassing clouds.5 mph78%29.89 "HgN/A
11:30 PM
Jul 28
79 °FSprinkles. Passing clouds.9 mph65%29.92 "HgN/A
11:00 PM81 °FPassing clouds.9 mph54%29.89 "HgN/A
10:30 PM81 °FPassing clouds.9 mph54%29.89 "HgN/A
10:00 PM81 °FWarm.12 mph54%29.89 "HgN/A
9:30 PM82 °FSunny.12 mph55%29.86 "Hg10 mi
9:00 PM82 °FSunny.9 mph48%29.86 "Hg10 mi
8:30 PM82 °FPassing clouds.7 mph48%29.83 "HgN/A
8:00 PM82 °FPassing clouds.5 mph48%29.86 "HgN/A
7:30 PM86 °FPassing clouds.7 mph40%29.86 "HgN/A
7:00 PM86 °FSunny.7 mph38%29.86 "Hg10 mi
6:30 PM88 °FSunny.9 mph31%29.86 "Hg10 mi
6:00 PM90 °FPassing clouds.12 mph31%29.89 "HgN/A
5:30 PM90 °FPassing clouds.12 mph31%29.89 "HgN/A
5:00 PM90 °FPassing clouds.12 mph31%29.89 "HgN/A
4:30 PM90 °FSunny.12 mph29%29.89 "Hg10 mi
4:00 PM88 °FSunny.14 mph33%29.89 "Hg10 mi
Weather by CustomWeather, © 2014

See weather overviewHow to use our weather pages